This is the latest recevied weather packets stored in our database for station/object IK1PCD-11. If no packets are shown the sender has not sent any weather packets the latest 10 day(s).
| Time | Temp. | Humidity | Pressure | Rain* | Wind** | Luminosity | Snow |
|---|---|---|---|---|---|---|---|
| 1777372311 | 17.78° C | 46% | 1016.8 hPa | - | - | - | - |
| 1777371411 | 16.11° C | 47% | 1016.8 hPa | - | - | - | - |
| 1777370511 | 15.56° C | 47% | 1016.8 hPa | - | - | - | - |
| 1777369611 | 15.56° C | 52% | 1016.9 hPa | - | - | - | - |
| 1777368711 | 15.56° C | 54% | 1016.8 hPa | - | - | - | - |
| 1777367810 | 14.44° C | 56% | 1016.8 hPa | - | - | - | - |
| 1777366910 | 14.44° C | 54% | 1016.8 hPa | - | - | - | - |
| 1777366010 | 13.33° C | 59% | 1016.7 hPa | - | - | - | - |
| 1777365112 | 13.33° C | 57% | 1016.6 hPa | - | - | - | - |
| 1777364212 | 12.78° C | 68% | 1016.6 hPa | - | - | - | - |
| 1777363312 | 12.22° C | 65% | 1016.6 hPa | - | - | - | - |
| 1777362412 | 11.11° C | 79% | 1016.5 hPa | - | - | - | - |
| 1777361512 | 10° C | 79% | 1016.4 hPa | - | - | - | - |
| 1777360612 | 9.44° C | 86% | 1016.3 hPa | - | - | - | - |
| 1777359712 | 8.89° C | 95% | 1016.3 hPa | - | - | - | - |
| 1777358812 | 8.33° C | 87% | 1016.3 hPa | - | - | - | - |
| 1777357911 | 7.22° C | 91% | 1016.3 hPa | - | - | - | - |
| 1777357011 | 6.11° C | 93% | 1016.2 hPa | - | - | - | - |
| 1777356111 | 5° C | 99% | 1016.1 hPa | - | - | - | - |
| 1777355211 | 5° C | 99% | 1016.1 hPa | - | - | - | - |
| 1777354311 | 4.44° C | 100% | 1016.1 hPa | - | - | - | - |
| 1777353411 | 4.44° C | 100% | 1015.9 hPa | - | - | - | - |
| 1777350711 | 3.89° C | 100% | 1015.8 hPa | - | - | - | - |
| 1777349810 | 3.89° C | 100% | 1015.7 hPa | - | - | - | - |
| 1777348909 | 3.89° C | 100% | 1015.8 hPa | - | - | - | - |
* Rain since midnight (hover to see other rain measurements)
** Current wind speed in m/s (hover to see current wind gust speed)